Regional Weather Roundup
Issued by NWS

Home | Current Version | Previous Version | Text Only | Print | Product List | Glossary Off
Versions: 1 2 3 4 5 6 7 8 9 10 11 12 13 14 15 16 17 18 19 20 21 22 23 24 25 26 27 28 29 30 31 32 33 34 35 36 37 38 39 40 41 42 43 44 45 46 47 48 49 50

000
ASUS43 KMKX 251721
RWRWI

WISCONSIN REGIONAL WEATHER ROUNDUP
NATIONAL WEATHER SERVICE MILWAUKEE/SULLIVAN WI
1200 PM CDT WED MAY 25 2016

NOTE: "FAIR" INDICATES FEW OR NO CLOUDS BELOW 12,000 FEET WITH NO
SIGNIFICANT WEATHER AND/OR OBSTRUCTIONS TO VISIBILITY.

WIZ001-002-006>008-014>016-023>028-251800-
NORTHWEST WISCONSIN

CITY           SKY/WX    TMP DP  RH WIND       PRES   REMARKS
SUPERIOR ARPT  CLOUDY    45  45 100 NE12G21   30.03S FOG
ASHLAND        FOG       53  52  96 N13       30.03S VSB 3/4
HAYWARD        CLOUDY    74  58  57 SE12      29.97F
SIREN          CLOUDY    69  60  71 NE8       29.93S
CUMBERLAND     CLOUDY    72  57  60 E9        29.93F
RICE LAKE      CLOUDY    76  58  53 E12       29.94F
CHETEK         CLOUDY    76  62  60 E8        29.92F
LADYSMITH      CLOUDY    76  61  58 E9        29.98F
EAU CLAIRE     CLOUDY    78  59  51 E13G20    29.88F
MENOMONIE      CLOUDY    75  62  63 E5        29.89F
NEW RICHMOND   LGT RAIN  66  64  93 NE5       29.89F
OSCEOLA        RAIN      66  66 100 E9        29.94S
$$

WIZ003>005-009-010-017-018-251800-
NORTH CENTRAL WISCONSIN

CITY           SKY/WX    TMP DP  RH WIND       PRES   REMARKS
MANITOWISH WTR NOT AVBL
ARBOR VITAE    CLOUDY    72  61  67 SE6       30.03S
WOODRUFF       CLOUDY    72  61  67 SE6       30.03S
RHINELANDER    MOSUNNY   66  57  72 SE9       30.04F
EAGLE RIVER      N/A     70  55  59 SE7       30.04F
LAND O LAKES   CLOUDY    68  57  67 E7        30.06S
PHILLIPS       CLOUDY    70  59  68 E10       30.00S
TOMAHAWK       CLOUDY    70  60  70 E6        30.02F
MEDFORD        CLOUDY    71  62  73 E8        29.99F
MERRILL        CLOUDY    66  60  81 SE7       30.02F
$$

WIZ029-030-035-036-043>047-251800-
CENTRAL WISCONSIN

CITY           SKY/WX    TMP DP  RH WIND       PRES   REMARKS
WAUSAU         CLOUDY    70  59  68 E10       30.00F
MOSINEE        PTSUNNY   66  61  82 E15       30.01F
MARSHFIELD     PTSUNNY   71  59  65 E15       29.97F
STEVENS POINT  CLOUDY    65  57  75 E14       30.01F
WAUPACA        CLOUDY    73  59  60 NE9       30.01F
WAUTOMA        CLOUDY    71  59  65 NE9       29.99F
WISC RAPIDS    PTSUNNY   73  57  57 E13G18    29.99F
CAMP DOUGLAS   PTSUNNY   79  70  73 E13G18    29.93F HX  81
$$

WIZ011>013-019>022-031-037>040-048>050-251800-
NORTHEAST WISCONSIN

CITY           SKY/WX    TMP DP  RH WIND       PRES   REMARKS
ANTIGO         PTSUNNY   67  60  78 E9        30.04F
SHAWANO        CLOUDY    70  61  73 E9        30.03F
OCONTO         CLOUDY    62  60  93 E10       30.04F
STURGEON BAY   NOT AVBL
GREEN BAY      CLOUDY    64  57  78 NE9       30.03F
MANITOWOC      CLOUDY    60  55  83 NE10G17   30.04S
APPLETON       PTSUNNY   66  55  68 E10       30.01R
CLINTONVILLE   PTSUNNY   70  59  68 E10       30.02S
OSHKOSH        CLOUDY    68  59  73 NE9       30.00F
$$

WIZ032>034-041-042-053>061-251800-
SOUTHWEST WISCONSIN

CITY           SKY/WX    TMP DP  RH WIND       PRES   REMARKS
LA CROSSE      CLOUDY    76  64  66 S7        29.89F
SPARTA         CLOUDY    80  63  55 SE13      29.90F HX  82
VIROQUA        CLOUDY    77  61  56 SE14G20   29.90F
BOSCOBEL       CLOUDY    82  62  50 SE8       29.89F HX  83
PRAIRIE DU CHI PTSUNNY   78  59  51 SE13      29.88F HX  80
PLATTEVILLE    CLOUDY    80  62  54 SE14      29.92F HX  81
$$

WIZ056-057-062-063-064-067-068-251800-
SOUTH CENTRAL WISCONSIN

CITY           SKY/WX    TMP DP  RH WIND       PRES   REMARKS
REEDSBURG      PTSUNNY   80  62  54 S6        29.94F HX  81
BARABOO/DELLS  PTSUNNY   81  60  48 SE7       29.94F HX  81
LONE ROCK      PTSUNNY   81  63  54 SE14      29.92F HX  82
MINERAL POINT  MOSUNNY   81  63  54 SE14G20   29.92F HX  82
MADISON        PTSUNNY   80  63  55 S12       29.95F HX  81
MIDDLETON      MOSUNNY   83  63  51 S10       29.95F HX  84
WATERTOWN      PTSUNNY   81  65  59 S10       29.97S HX  82
MONROE         PTSUNNY   79  63  57 SE17G23   29.94F HX  80
JANESVILLE     MOSUNNY   82  64  54 SE9G17    29.95F HX  84
$$

WIZ051-052-058>065-066-070>072-251800-
SOUTHEAST WISCONSIN

CITY           SKY/WX    TMP DP  RH WIND       PRES   REMARKS
MILWAUKEE      PTSUNNY   60  52  74 NE12      30.01F
WAUKESHA       SUNNY     72  61  68 E7        30.00F
MILWAUKEE/TIMM SUNNY     64  52  63 NE8       30.01F
RACINE         CLOUDY    62  52  69 NE10      30.02S
BURLINGTON     MOSUNNY   82  62  50 S8        29.98S HX  82
KENOSHA        PTSUNNY   76  63  64 E14       29.99R
FOND DU LAC    PTSUNNY   76  61  59 E7        29.99F
SHEBOYGAN      CLOUDY    58  52  80 NE15      30.03S
WEST BEND      CLOUDY    68  57  68 E8        30.01S
JUNEAU         PTSUNNY   78  65  64 SE7       29.98S HX  80
$$

LSZ147-162-251800-
LAKE SUPERIOR

STATION/POSITION TIME  TEMP    WIND        PRES    WAVE
                       AIR SEA DIR/SP/G            HT/PER
                 (UTC) (F)     (DEG/KT/KT) (MB)    (FT/S)
W MID LAKE BUOY  1650   40 38   50/ 16/ 17 1018.6R   2/ 3
DEVILS ISLAND    1700   43      50/ 18/ 20 1018.7R
PORT WING        1600   44      30/ 16/ 18 1017.3S
SAXON HARBOR     1600   46     340/  1/  3 1016.6F
$$

LMZ867-665-643>646-251800-
LAKE MICHIGAN

STATION/POSITION TIME  TEMP    WIND        PRES    WAVE
                       AIR SEA DIR/SP/G            HT/PER
                 (UTC) (F)     (DEG/KT/KT) (MB)    (FT/S)
CHAMBERS ISLAND  1600   54      40/ 10/ 13 1018.3S
N MID LAKE BUOY  1650   49 45   20/  8/  8 1018.2R   0
NORTHPORT PIER   1600   56      80/  1/  4 1018.3S
SISTER BAY       1650   55     340/ 12/ 14   N/A
ALGOMA LAKESHORE 1602           70/ 14/ 15   N/A
KEWAUNEE LAKESHO 1600   52      20/  6/  8 1016.9S
SHEBOYGAN LAKESH 1700   49     360/ 13/ 14 1017.4F
PORT WASHINGTON  1600   55      50/ 10/ 12 1017.3F
S MID LAKE BUOY  1650   54 50  160/  6/  8 1016.0F   1
KENOSHA   LAKESH 1700   54      30/ 10/ 12 1015.9R
$$

TC  - TEMPERATURE IN CELSIUS
VSB - VISIBILITY IN STATUTE MILES
WCI - WIND CHILL INDEX
HX  - HEAT INDEX




USA.gov is the U.S. government's official web portal to all federal, state and local government web resources and services.